SCP
-0 -0 0 0 0 0 0 0 0 0 0 0 0 0 0 0 0 0 0 0 0 0 0 0 0 0 0 0 0 0 0 0 0 0 0 0 0 0 0 0 0 0 0
0 0 0 0 0 0 0 0 0 0 0 0 1 1 0 0 0 0 0 0 0 0 0 0 0 0 0 0 0 0 0 0 0 0 0 0 0 0 0 0 0 0 0
0 0 0 0 0 0 0 0 0 0 0 1 1 1 1 1 1 0 0 0 0 0 0 0 0 0 0 0 0 0 0 0 0 0 0 0 0 0 0 0 0 0 0
0 -0 -0 0 0 0 0 0 0 0 1 2 2 2 2 2 1 1 0 0 0 0 0 0 0 0 0 0 0 0 0 0 0 0 0 0 0 0 0 0 0 0 0
0 -0 -0 0 0 0 0 0 1 1 2 2 3 3 3 1 0 0 0 0 0 0 0 0 0 0 0 0 0 0 0 0 0 0 0 0 0 0 0 0 0 0 0
-0 0 0 0 0 1 1 2 2 3 4 2 3 3 3 1 1 0 0 0 0 0 0 0 0 0 0 0 0 0 0 0 0 0 0 0 0 0 0 0 0 0 0
0 -0 0 0 0 1 1 2 3 4 4 4 3 2 2 1 1 0 0 0 0 0 0 0 0 0 0 0 0 0 0 0 0 0 0 0 0 0 0 0 0 0 0
0 0 -0 -0 1 2 2 3 4 5 4 4 3 2 1 1 1 0 0 0 0 0 0 0 0 0 0 0 0 0 0 0 0 0 0 0 0 0 0 0 0 0 0
0 0 0 0 1 2 2 3 4 5 4 3 2 1 1 0 0 0 0 0 0 0 0 0 0 0 0 0 0 0 0 0 0 0 0 0 0 0 0 0 0 0 0
0 0 1 1 1 1 2 3 4 4 2 2 1 1 0 0 0 0 0 0 0 0 0 0 0 0 0 0 0 0 0 0 0 0 0 0 0 0 0 0 0 0 0
0 -0 0 1 2 2 2 3 3 3 2 1 0 0 0 0 0 0 0 0 0 0 0 0 0 0 0 0 0 0 0 0 0 0 0 0 0 0 0 0 0 0 0
0 0 0 0 1 2 3 3 3 2 1 0 0 0 0 0 0 0 0 0 0 0 0 0 0 0 0 0 0 0 0 0 0 0 0 0 0 0 0 0 0 0 0
0 0 0 0 0 1 2 3 3 2 1 0 0 0 0 0 0 0 0 0 0 0 0 0 0 0 0 0 0 0 0 0 0 0 0 0 0 0 0 0 0 0 0
1 1 1 1 0 1 2 2 1 0 0 0 0 0 0 0 0 0 0 0 0 0 0 0 0 0 0 0 0 0 0 0 0 0 0 0 0 0 0 0 0 0 0
0 0 1 1 1 1 3 1 0 0 0 0 0 0 0 0 0 0 0 0 0 0 0 0 0 0 0 0 0 0 0 0 0 0 0 0 0 0 0 0 0 0 0
0 2 3 3 2 2 1 0 0 0 0 0 0 0 0 0 0 0 0 0 0 0 0 0 0 0 0 0 0 0 0 0 0 0 0 0 0 0 0 0 0 0 0
0 0 3 2 1 1 0 0 0 0 0 0 0 0 0 0 0 0 0 0 0 0 0 0 0 0 0 0 0 0 0 0 0 0 0 0 0 0 0 0 0 0 0
0 0 1 0 0 -0 0 0 0 0 0 0 0 0 0 0 0 0 0 0 0 0 0 0 0 0 0 0 0 0 0 0 0 0 0 0 0 0 0 0 0 0 0
0 0 0 -0 -0 -0 0 0 0 0 0 0 0 0 0 0 0 0 0 0 0 0 0 0 0 0 0 0 0 0 0 0 0 0 0 0 0 0 0 0 0 0 0
0 0 0 -0 -0 -0 0 0 0 0 0 0 0 0 0 0 0 0 0 0 0 0 0 0 0 0 0 0 0 0 0 0 0 0 0 0 0 0 0 0 0 0 0
0 0 -0 -0 -0 0 -0 0 0 0 0 0 0 0 0 0 0 0 0 0 0 0 0 0 0 0 0 0 0 0 0 0 0 0 0 0 0 0 0 0 0 0 0
0 -0 -0 -0 -0 0 0 0 0 0 0 0 0 0 0 0 0 0 0 0 0 0 0 0 0 0 0 0 0 0 0 0 0 0 0 0 0 0 0 0 0 0 0
0 0 0 0 0 0 0 0 0 0 0 0 0 0 0 0 0 0 0 0 0 0 0 0 0 0 0 0 0 0 0 0 0 0 0 0 0 0 0 0 0 0 0
0 0 0 -0 0 0 0 0 0 0 0 0 0 0 0 0 0 0 0 0 0 0 0 0 0 0 0 0 0 0 0 0 0 0 0 0 0 0 0 0 0 0 0
0 0 0 0 0 0 0 0 0 0 0 0 0 0 0 0 0 0 0 0 0 0 0 0 0 0 0 0 0 0 0 0 0 0 0 0 0 0 0 0 0 0 -0
0 0 0 0 0 0 0 0 0 0 0 0 0 0 0 0 0 0 0 0 0 0 0 0 0 0 0 0 0 0 0 0 0 0 0 0 0 0 0 0 -0 0 0
Wind_Speed_500mb
91 93 87 87 88 88 86 83 84 82 77 70 66 63 63 60 63 61 55 54 52 49 49 50 46 58 45 39 44 42 40 40 46 52 52 50 33 13 24 17 19 15 18
66 92 94 90 93 92 98 94 90 86 77 73 69 69 64 67 70 69 68 61 57 51 54 35 26 68 49 43 38 38 36 39 44 44 44 20 31 10 15 26 18 16 17
56 64 88 99 96 95 99 95 93 89 79 74 74 75 74 73 76 78 72 63 53 65 64 27 26 54 45 37 33 32 36 39 39 36 27 11 8 34 16 24 20 29 29
16 39 66 91 104 97 96 93 90 89 79 77 76 85 85 76 75 69 66 63 67 64 53 24 46 38 33 31 27 32 37 39 33 31 30 24 24 13 16 21 23 24 32
5 19 44 71 95 94 91 86 85 86 79 76 77 82 80 78 70 74 64 59 67 62 50 37 24 22 25 25 28 34 38 31 31 29 25 21 18 21 24 35 37 31 38
12 9 20 32 64 87 85 78 77 82 84 80 77 73 72 70 72 63 60 57 62 53 39 16 16 22 20 23 31 35 30 28 29 23 18 16 20 26 33 42 46 47 46
18 13 14 17 28 61 75 73 74 78 75 70 64 62 66 62 60 60 58 57 59 50 21 13 17 18 20 26 33 30 26 25 21 19 21 22 25 31 37 45 50 47 57
21 19 21 20 21 30 48 64 66 65 62 56 53 52 56 56 54 48 46 41 41 25 16 20 17 21 24 29 29 25 21 19 18 20 25 30 31 37 44 48 49 56 57
30 20 19 20 25 38 44 50 55 54 47 45 49 44 51 53 51 46 37 36 29 18 21 19 22 22 25 27 24 23 22 24 25 27 28 33 38 39 44 46 48 57 59
23 17 20 27 36 40 43 48 46 42 37 37 40 36 34 39 39 33 25 24 21 19 18 19 19 22 24 23 25 26 27 30 32 33 33 33 43 42 45 47 57 67 69
15 17 29 37 47 44 49 47 39 33 33 41 33 28 30 32 24 18 16 15 11 11 14 15 18 20 21 24 27 33 34 35 33 32 35 41 39 45 55 59 65 60 54
27 24 18 27 39 49 54 48 39 39 35 39 24 18 25 23 19 13 14 11 9 10 12 14 18 22 25 29 32 33 34 35 37 35 40 42 48 51 50 54 51 49 50
33 26 28 27 38 49 50 48 48 40 43 31 9 15 21 17 17 12 12 10 10 11 13 16 18 22 27 32 33 36 34 40 32 35 42 48 48 56 64 62 56 49 48
52 49 48 38 38 51 45 35 37 36 19 10 9 6 14 18 20 15 13 10 11 12 13 15 21 26 32 35 35 30 29 29 35 39 42 51 57 57 58 52 58 55 57
64 64 63 56 45 34 35 38 36 29 32 69 46 20 17 20 18 14 10 7 6 11 16 23 28 32 32 24 25 28 31 39 44 49 53 58 58 58 55 56 60 55 49
69 70 76 70 50 22 30 37 30 22 27 46 18 21 22 15 9 9 4 5 10 12 17 25 30 28 16 17 26 35 43 50 56 58 57 57 54 53 55 57 58 68 73
63 62 69 69 66 34 24 26 18 18 33 7 19 24 14 10 5 6 3 4 11 16 22 27 27 19 22 30 37 43 48 51 52 53 53 56 59 65 73 84 80 61 53
69 62 65 62 56 52 33 26 23 20 22 22 19 18 13 7 5 4 7 11 17 22 25 21 16 24 35 39 38 38 43 43 44 49 59 70 75 72 54 53 55 59 53
63 62 58 58 55 41 38 29 26 31 20 12 18 13 6 5 4 8 9 12 17 22 11 17 25 35 38 38 37 40 43 46 55 63 73 65 55 50 39 36 37 38 34
64 72 65 54 46 38 31 25 21 13 4 7 15 12 9 10 12 11 10 16 18 8 20 26 31 38 36 32 36 45 54 61 66 67 58 42 34 32 35 36 38 36 32
52 69 76 62 43 37 23 18 23 16 11 15 11 9 9 10 10 10 15 16 8 16 26 35 40 35 29 34 46 55 62 65 61 50 43 38 33 39 38 37 36 36 36
49 51 62 67 46 37 24 19 22 16 17 10 12 10 5 6 8 6 7 8 14 25 34 34 26 25 34 45 56 63 58 46 39 38 37 35 39 39 33 34 29 26 23
46 41 48 68 54 39 29 24 22 21 11 12 15 14 5 4 3 3 11 18 25 27 24 17 22 32 42 56 61 55 37 36 35 33 33 29 30 32 27 23 24 20 18
38 39 48 62 56 39 24 25 20 19 17 18 16 10 7 8 8 12 18 17 18 16 18 23 32 45 56 56 44 45 45 41 37 35 32 28 25 25 27 25 24 15 11
47 43 42 51 48 36 19 24 20 22 24 22 12 7 8 8 10 14 15 14 11 17 24 33 44 52 51 40 40 43 46 42 39 37 34 30 27 27 28 28 31 14 10
44 42 39 42 50 38 22 24 15 26 28 21 11 8 10 7 10 14 11 12 16 22 30 41 47 44 37 35 37 40 39 36 36 35 34 33 30 29 29 27 27 20 18
Wind_Direction_500mb
237 231 228 228 227 232 233 232 229 229 227 229 229 232 239 241 239 247 254 255 255 252 247 250 263 269 266 271 278 281 288 294 303 309 309 314 318 293 288 311 314 298 312
245 237 231 230 230 230 234 232 231 231 233 232 235 236 244 245 247 250 251 252 256 252 241 232 314 279 269 276 279 284 292 302 309 307 317 323 303 257 298 315 305 303 325
233 237 236 232 230 230 233 233 231 231 233 234 235 233 237 238 241 242 245 248 252 258 238 256 291 263 270 270 281 290 303 310 306 307 314 309 276 310 289 318 303 306 315
206 222 236 229 227 229 231 234 231 233 233 236 234 234 237 238 243 244 244 250 252 231 245 254 271 262 264 278 292 303 312 309 305 309 311 299 298 309 317 323 330 321 321
199 236 229 233 230 229 232 236 233 232 235 237 240 241 244 247 252 253 248 250 244 237 247 248 246 253 269 287 303 311 311 308 308 310 306 298 309 322 314 319 329 320 316
321 161 227 227 238 229 234 236 236 235 233 235 240 245 249 254 257 255 264 260 241 237 239 231 253 274 283 299 305 312 315 313 314 311 307 294 303 314 310 310 313 314 313
309 252 222 221 229 233 237 238 237 238 241 243 248 256 260 259 262 265 265 270 235 237 246 264 275 283 294 301 310 316 316 313 315 309 304 294 297 300 299 297 301 305 309
316 257 228 218 230 240 241 237 239 244 246 246 250 261 265 268 270 261 264 266 242 246 257 267 272 282 293 306 312 314 318 319 323 330 311 300 293 292 299 292 298 301 302
3 279 254 247 242 241 238 243 248 242 243 249 259 265 277 273 272 267 256 242 236 240 257 261 266 280 301 308 310 315 324 323 321 315 312 300 299 299 298 292 294 296 296
359 332 274 255 242 236 241 243 244 250 251 255 265 277 271 266 257 248 235 216 227 252 248 255 269 289 300 304 307 314 318 307 306 299 296 294 299 303 302 302 298 298 295
330 283 264 257 250 242 246 249 249 251 252 256 257 268 269 273 253 239 220 245 251 226 235 257 284 295 302 312 315 312 308 304 299 293 295 299 298 301 302 304 303 295 288
345 322 287 276 262 249 250 249 243 247 247 252 244 275 271 252 252 243 254 242 248 262 276 295 302 306 312 313 309 308 308 304 301 302 299 298 303 307 314 312 309 301 294
14 349 314 288 248 248 252 254 247 238 241 241 255 277 286 258 254 248 259 277 284 291 303 306 310 321 324 319 316 310 306 307 307 308 304 303 304 305 304 305 302 299 300
18 8 4 353 297 266 270 267 270 281 250 278 242 282 303 275 278 268 253 261 280 301 312 329 338 333 327 325 320 315 314 315 314 309 304 303 295 294 294 292 294 292 287
21 15 7 356 339 301 266 255 247 251 256 314 298 297 299 297 276 262 253 262 306 332 348 344 340 335 329 331 331 324 318 313 307 304 296 290 288 290 292 291 292 288 292
16 13 9 5 359 325 262 255 253 287 291 319 187 235 266 288 285 265 262 345 342 332 341 341 334 323 314 320 318 312 306 304 301 297 297 297 301 296 295 294 291 294 295
10 13 10 6 6 353 320 273 283 300 294 225 210 228 251 292 288 247 280 326 335 339 338 333 319 306 312 311 314 313 313 316 312 307 305 303 304 304 303 298 296 298 293
13 15 11 11 12 5 341 290 265 267 281 245 225 214 252 264 224 228 268 311 338 333 327 316 305 311 309 314 313 309 313 315 310 309 311 311 309 307 308 304 301 301 299
2 5 7 7 2 353 344 315 256 299 287 229 217 238 249 231 266 298 297 316 324 324 311 310 313 309 310 311 304 309 316 314 310 313 315 314 313 313 323 325 324 318 320
352 351 352 352 351 350 357 341 318 328 357 218 240 260 228 256 283 304 319 322 330 296 304 315 310 303 296 302 311 318 318 317 320 321 319 323 330 330 329 330 328 322 322
342 338 339 342 340 342 350 337 353 326 289 265 246 234 242 259 282 314 330 326 313 308 312 312 306 298 299 311 318 321 324 326 326 329 335 338 337 330 325 324 324 323 323
321 315 322 322 330 325 308 304 308 306 283 234 222 223 233 269 329 354 341 325 301 308 317 316 308 303 313 321 325 326 328 332 338 345 348 345 338 332 325 326 330 331 328
301 308 309 313 316 314 296 284 289 282 230 218 220 204 200 201 246 279 314 317 317 320 326 322 315 320 327 329 327 333 349 355 356 352 348 338 345 349 348 348 351 345 359
287 298 305 311 317 307 291 289 282 280 233 226 211 207 193 219 264 319 333 336 328 339 340 333 333 334 333 334 346 356 360 356 352 347 345 344 349 359 360 2 2 1 11
290 297 294 312 320 315 294 297 283 253 231 222 209 197 216 258 308 335 334 340 345 346 340 339 338 338 344 355 358 358 353 350 351 347 350 353 358 5 7 8 6 20 3
295 301 289 311 330 325 298 287 265 237 232 208 168 187 228 275 318 333 337 345 349 345 341 340 345 353 358 360 1 359 352 355 357 2 4 3 5 6 5 6 11 17 19
Wind_Speed_850mb
91 93 87 87 88 88 86 83 84 82 77 70 66 63 63 60 63 61 55 54 52 49 49 50 46 58 45 39 44 42 40 40 46 52 52 50 33 13 24 17 19 15 18
66 92 94 90 93 92 98 94 90 86 77 73 69 69 64 67 70 69 68 61 57 51 54 35 26 68 49 43 38 38 36 39 44 44 44 20 31 10 15 26 18 16 17
56 64 88 99 96 95 99 95 93 89 79 74 74 75 74 73 76 78 72 63 53 65 64 27 26 54 45 37 33 32 36 39 39 36 27 11 8 34 16 24 20 29 29
16 39 66 91 104 97 96 93 90 89 79 77 76 85 85 76 75 69 66 63 67 64 53 24 46 38 33 31 27 32 37 39 33 31 30 24 24 13 16 21 23 24 32
5 19 44 71 95 94 91 86 85 86 79 76 77 82 80 78 70 74 64 59 67 62 50 37 24 22 25 25 28 34 38 31 31 29 25 21 18 21 24 35 37 31 38
12 9 20 32 64 87 85 78 77 82 84 80 77 73 72 70 72 63 60 57 62 53 39 16 16 22 20 23 31 35 30 28 29 23 18 16 20 26 33 42 46 47 46
18 13 14 17 28 61 75 73 74 78 75 70 64 62 66 62 60 60 58 57 59 50 21 13 17 18 20 26 33 30 26 25 21 19 21 22 25 31 37 45 50 47 57
21 19 21 20 21 30 48 64 66 65 62 56 53 52 56 56 54 48 46 41 41 25 16 20 17 21 24 29 29 25 21 19 18 20 25 30 31 37 44 48 49 56 57
30 20 19 20 25 38 44 50 55 54 47 45 49 44 51 53 51 46 37 36 29 18 21 19 22 22 25 27 24 23 22 24 25 27 28 33 38 39 44 46 48 57 59
23 17 20 27 36 40 43 48 46 42 37 37 40 36 34 39 39 33 25 24 21 19 18 19 19 22 24 23 25 26 27 30 32 33 33 33 43 42 45 47 57 67 69
15 17 29 37 47 44 49 47 39 33 33 41 33 28 30 32 24 18 16 15 11 11 14 15 18 20 21 24 27 33 34 35 33 32 35 41 39 45 55 59 65 60 54
27 24 18 27 39 49 54 48 39 39 35 39 24 18 25 23 19 13 14 11 9 10 12 14 18 22 25 29 32 33 34 35 37 35 40 42 48 51 50 54 51 49 50
33 26 28 27 38 49 50 48 48 40 43 31 9 15 21 17 17 12 12 10 10 11 13 16 18 22 27 32 33 36 34 40 32 35 42 48 48 56 64 62 56 49 48
52 49 48 38 38 51 45 35 37 36 19 10 9 6 14 18 20 15 13 10 11 12 13 15 21 26 32 35 35 30 29 29 35 39 42 51 57 57 58 52 58 55 57
64 64 63 56 45 34 35 38 36 29 32 69 46 20 17 20 18 14 10 7 6 11 16 23 28 32 32 24 25 28 31 39 44 49 53 58 58 58 55 56 60 55 49
69 70 76 70 50 22 30 37 30 22 27 46 18 21 22 15 9 9 4 5 10 12 17 25 30 28 16 17 26 35 43 50 56 58 57 57 54 53 55 57 58 68 73
63 62 69 69 66 34 24 26 18 18 33 7 19 24 14 10 5 6 3 4 11 16 22 27 27 19 22 30 37 43 48 51 52 53 53 56 59 65 73 84 80 61 53
69 62 65 62 56 52 33 26 23 20 22 22 19 18 13 7 5 4 7 11 17 22 25 21 16 24 35 39 38 38 43 43 44 49 59 70 75 72 54 53 55 59 53
63 62 58 58 55 41 38 29 26 31 20 12 18 13 6 5 4 8 9 12 17 22 11 17 25 35 38 38 37 40 43 46 55 63 73 65 55 50 39 36 37 38 34
64 72 65 54 46 38 31 25 21 13 4 7 15 12 9 10 12 11 10 16 18 8 20 26 31 38 36 32 36 45 54 61 66 67 58 42 34 32 35 36 38 36 32
52 69 76 62 43 37 23 18 23 16 11 15 11 9 9 10 10 10 15 16 8 16 26 35 40 35 29 34 46 55 62 65 61 50 43 38 33 39 38 37 36 36 36
49 51 62 67 46 37 24 19 22 16 17 10 12 10 5 6 8 6 7 8 14 25 34 34 26 25 34 45 56 63 58 46 39 38 37 35 39 39 33 34 29 26 23
46 41 48 68 54 39 29 24 22 21 11 12 15 14 5 4 3 3 11 18 25 27 24 17 22 32 42 56 61 55 37 36 35 33 33 29 30 32 27 23 24 20 18
38 39 48 62 56 39 24 25 20 19 17 18 16 10 7 8 8 12 18 17 18 16 18 23 32 45 56 56 44 45 45 41 37 35 32 28 25 25 27 25 24 15 11
47 43 42 51 48 36 19 24 20 22 24 22 12 7 8 8 10 14 15 14 11 17 24 33 44 52 51 40 40 43 46 42 39 37 34 30 27 27 28 28 31 14 10
44 42 39 42 50 38 22 24 15 26 28 21 11 8 10 7 10 14 11 12 16 22 30 41 47 44 37 35 37 40 39 36 36 35 34 33 30 29 29 27 27 20 18
Wind_Direction_850mb
237 231 228 228 227 232 233 232 229 229 227 229 229 232 239 241 239 247 254 255 255 252 247 250 263 269 266 271 278 281 288 294 303 309 309 314 318 293 288 311 314 298 312
245 237 231 230 230 230 234 232 231 231 233 232 235 236 244 245 247 250 251 252 256 252 241 232 314 279 269 276 279 284 292 302 309 307 317 323 303 257 298 315 305 303 325
233 237 236 232 230 230 233 233 231 231 233 234 235 233 237 238 241 242 245 248 252 258 238 256 291 263 270 270 281 290 303 310 306 307 314 309 276 310 289 318 303 306 315
206 222 236 229 227 229 231 234 231 233 233 236 234 234 237 238 243 244 244 250 252 231 245 254 271 262 264 278 292 303 312 309 305 309 311 299 298 309 317 323 330 321 321
199 236 229 233 230 229 232 236 233 232 235 237 240 241 244 247 252 253 248 250 244 237 247 248 246 253 269 287 303 311 311 308 308 310 306 298 309 322 314 319 329 320 316
321 161 227 227 238 229 234 236 236 235 233 235 240 245 249 254 257 255 264 260 241 237 239 231 253 274 283 299 305 312 315 313 314 311 307 294 303 314 310 310 313 314 313
309 252 222 221 229 233 237 238 237 238 241 243 248 256 260 259 262 265 265 270 235 237 246 264 275 283 294 301 310 316 316 313 315 309 304 294 297 300 299 297 301 305 309
316 257 228 218 230 240 241 237 239 244 246 246 250 261 265 268 270 261 264 266 242 246 257 267 272 282 293 306 312 314 318 319 323 330 311 300 293 292 299 292 298 301 302
3 279 254 247 242 241 238 243 248 242 243 249 259 265 277 273 272 267 256 242 236 240 257 261 266 280 301 308 310 315 324 323 321 315 312 300 299 299 298 292 294 296 296
359 332 274 255 242 236 241 243 244 250 251 255 265 277 271 266 257 248 235 216 227 252 248 255 269 289 300 304 307 314 318 307 306 299 296 294 299 303 302 302 298 298 295
330 283 264 257 250 242 246 249 249 251 252 256 257 268 269 273 253 239 220 245 251 226 235 257 284 295 302 312 315 312 308 304 299 293 295 299 298 301 302 304 303 295 288
345 322 287 276 262 249 250 249 243 247 247 252 244 275 271 252 252 243 254 242 248 262 276 295 302 306 312 313 309 308 308 304 301 302 299 298 303 307 314 312 309 301 294
14 349 314 288 248 248 252 254 247 238 241 241 255 277 286 258 254 248 259 277 284 291 303 306 310 321 324 319 316 310 306 307 307 308 304 303 304 305 304 305 302 299 300
18 8 4 353 297 266 270 267 270 281 250 278 242 282 303 275 278 268 253 261 280 301 312 329 338 333 327 325 320 315 314 315 314 309 304 303 295 294 294 292 294 292 287
21 15 7 356 339 301 266 255 247 251 256 314 298 297 299 297 276 262 253 262 306 332 348 344 340 335 329 331 331 324 318 313 307 304 296 290 288 290 292 291 292 288 292
16 13 9 5 359 325 262 255 253 287 291 319 187 235 266 288 285 265 262 345 342 332 341 341 334 323 314 320 318 312 306 304 301 297 297 297 301 296 295 294 291 294 295
10 13 10 6 6 353 320 273 283 300 294 225 210 228 251 292 288 247 280 326 335 339 338 333 319 306 312 311 314 313 313 316 312 307 305 303 304 304 303 298 296 298 293
13 15 11 11 12 5 341 290 265 267 281 245 225 214 252 264 224 228 268 311 338 333 327 316 305 311 309 314 313 309 313 315 310 309 311 311 309 307 308 304 301 301 299
2 5 7 7 2 353 344 315 256 299 287 229 217 238 249 231 266 298 297 316 324 324 311 310 313 309 310 311 304 309 316 314 310 313 315 314 313 313 323 325 324 318 320
352 351 352 352 351 350 357 341 318 328 357 218 240 260 228 256 283 304 319 322 330 296 304 315 310 303 296 302 311 318 318 317 320 321 319 323 330 330 329 330 328 322 322
342 338 339 342 340 342 350 337 353 326 289 265 246 234 242 259 282 314 330 326 313 308 312 312 306 298 299 311 318 321 324 326 326 329 335 338 337 330 325 324 324 323 323
321 315 322 322 330 325 308 304 308 306 283 234 222 223 233 269 329 354 341 325 301 308 317 316 308 303 313 321 325 326 328 332 338 345 348 345 338 332 325 326 330 331 328
301 308 309 313 316 314 296 284 289 282 230 218 220 204 200 201 246 279 314 317 317 320 326 322 315 320 327 329 327 333 349 355 356 352 348 338 345 349 348 348 351 345 359
287 298 305 311 317 307 291 289 282 280 233 226 211 207 193 219 264 319 333 336 328 339 340 333 333 334 333 334 346 356 360 356 352 347 345 344 349 359 360 2 2 1 11
290 297 294 312 320 315 294 297 283 253 231 222 209 197 216 258 308 335 334 340 345 346 340 339 338 338 344 355 358 358 353 350 351 347 350 353 358 5 7 8 6 20 3
295 301 289 311 330 325 298 287 265 237 232 208 168 187 228 275 318 333 337 345 349 345 341 340 345 353 358 360 1 359 352 355 357 2 4 3 5 6 5 6 11 17 19